Findlay, OH

12:43 AM EST on November 19, 2017 (GMT -0500)
Findlay

Weather History for KFDY - August, 2014

Change the Weather History Date:

Wednesday, August 27, 2014

  Actual Average Record
Temperature  
Mean Temperature 76 °F -  
Max Temperature 86 °F 81 °F 95 °F (1953)
Min Temperature 69 °F 61 °F 48 °F (1968)
Cooling Degree Days 12    
Growing Degree Days 26 (Base 50)    
Moisture  
Dew Point 67 °F    
Average Humidity 81    
Maximum Humidity 96    
Minimum Humidity 48    
Precipitation  
Precipitation 0.00 in - - ()
Sea Level Pressure  
Sea Level Pressure 30.07 in    
Wind  
Wind Speed 4 mph (NW)    
Max Wind Speed 12 mph    
Max Gust Speed -    
Visibility 6 miles    
Events Fog    
Averages and records for this station are not official NWS values.
T = Trace of Precipitation, MM = Missing Value Source: NWS Daily Summary

Daily Weather History Graph

Daily Weather History Graph

Search for Another Location

Airport or City:

Trip Planner

Search our weather history database for the weather conditions in past years. The results will help you decide how hot, cold, wet, or windy it might be!

Date:

Astronomy

Aug. 27, 2014 Rise Set
Actual Time 6:56 AM EDT 8:15 PM EDT
Civil Twilight 6:27 AM EDT 8:43 PM EDT
Nautical Twilight 5:53 AM EDT 9:17 PM EDT
Astronomical Twilight 5:17 AM EDT 9:53 PM EDT
Moon 8:52 AM EDT (8/27) 9:05 PM EDT (8/27)
Length of Visible Light 14h 15m
Length of Day
13h 18m
Waxing Crescent, 4% of the Moon is Illuminated
Aug 27
Waxing Crescent
Sep 2
First Quarter
Sep 8
Full
Sep 15
Last Quarter
Sep 24
New

Hourly Weather History & Observations

Time (EDT) Temp. Heat Index Dew Point Humidity Pressure Visibility Wind Dir Wind Speed Gust Speed Precip Events Conditions
12:53 AM 73.0 °F - 70.0 °F 90% 30.05 in 8.0 mi West 5.8 mph - N/A   Clear
1:53 AM 72.0 °F - 69.1 °F 91% 30.05 in 6.0 mi West 5.8 mph - N/A   Partly Cloudy
2:53 AM 70.0 °F - 68.0 °F 93% 30.05 in 4.0 mi West 4.6 mph - N/A   Partly Cloudy
3:37 AM 71.1 °F - 69.1 °F 93% 30.08 in 4.0 mi Calm Calm - N/A   Scattered Clouds
3:51 AM 69.8 °F - 66.2 °F 88% 30.08 in 0.8 mi Calm Calm - N/A   Scattered Clouds
3:53 AM 69.1 °F - 66.9 °F 93% 30.05 in 0.5 mi Calm Calm - N/A Fog Fog
4:40 AM 69.1 °F - 66.9 °F 93% 30.08 in 0.2 mi Calm Calm - N/A Fog Fog
4:53 AM 69.1 °F - 68.0 °F 96% 30.05 in 0.2 mi NW 3.5 mph - N/A Fog Fog
5:05 AM 69.1 °F - 68.0 °F 96% 30.08 in 1.0 mi Calm Calm - N/A   Mostly Cloudy
5:10 AM 69.1 °F - 68.0 °F 96% 30.08 in 2.5 mi Calm Calm - N/A   Mostly Cloudy
5:23 AM 69.1 °F - 66.9 °F 93% 30.08 in 1.8 mi Calm Calm - N/A   Mostly Cloudy
5:53 AM 69.1 °F - 66.9 °F 93% 30.06 in 1.8 mi West 3.5 mph - N/A   Overcast
6:04 AM 69.1 °F - 66.9 °F 93% 30.09 in 0.2 mi Calm Calm - N/A Fog Fog
6:53 AM 69.1 °F - 66.9 °F 93% 30.06 in 0.5 mi WNW 3.5 mph - N/A Fog Fog
7:08 AM 69.1 °F - 68.0 °F 96% 30.09 in 0.2 mi Calm Calm - N/A Fog Fog
7:53 AM 70.0 °F - 68.0 °F 93% 30.07 in 0.2 mi NW 3.5 mph - N/A Fog Fog
7:59 AM 69.1 °F - 68.0 °F 96% 30.10 in 1.0 mi Calm Calm - N/A   Overcast
8:12 AM 70.0 °F - 68.0 °F 93% 30.10 in 2.0 mi Calm Calm - N/A   Mostly Cloudy
8:23 AM 70.0 °F - 68.0 °F 93% 30.09 in 3.0 mi Calm Calm - N/A   Mostly Cloudy
8:53 AM 71.1 °F - 69.1 °F 93% 30.07 in 4.0 mi NNW 3.5 mph - N/A   Overcast
9:53 AM 73.9 °F - 68.0 °F 82% 30.07 in 10.0 mi Calm Calm - N/A   Overcast
10:53 AM 75.9 °F - 68.0 °F 76% 30.08 in 10.0 mi NW 4.6 mph - N/A   Overcast
11:36 AM 77.0 °F - 68.0 °F 74% 30.11 in 10.0 mi North 6.9 mph - N/A   Overcast
11:53 AM 78.1 °F - 69.1 °F 74% 30.09 in 10.0 mi WNW 8.1 mph - N/A   Overcast
12:53 PM 79.0 °F - 66.9 °F 66% 30.07 in 10.0 mi North 3.5 mph - N/A   Mostly Cloudy
1:53 PM 82.0 °F 84.5 °F 66.9 °F 60% 30.06 in 10.0 mi WNW 8.1 mph - N/A   Scattered Clouds
2:01 PM 82.0 °F 84.9 °F 68.0 °F 62% 30.08 in 10.0 mi NW 8.1 mph - N/A   Mostly Cloudy
2:12 PM 82.0 °F 84.5 °F 66.9 °F 60% 30.08 in 10.0 mi Variable 5.8 mph - N/A   Scattered Clouds
3:53 PM 84.9 °F 87.1 °F 66.0 °F 53% 30.03 in 10.0 mi West 10.4 mph - N/A   Clear
4:53 PM 84.9 °F 86.6 °F 64.9 °F 51% 30.03 in 10.0 mi West 8.1 mph - N/A   Clear
5:53 PM 84.9 °F 85.9 °F 63.0 °F 48% 30.02 in 10.0 mi West 3.5 mph - N/A   Scattered Clouds
6:53 PM 81.0 °F 82.7 °F 64.9 °F 58% 30.02 in 10.0 mi North 8.1 mph - N/A   Scattered Clouds
7:53 PM 77.0 °F - 64.9 °F 66% 30.02 in 10.0 mi NE 11.5 mph - N/A   Scattered Clouds
8:53 PM 73.9 °F - 64.9 °F 73% 30.04 in 10.0 mi ENE 9.2 mph - N/A   Clear
9:53 PM 73.0 °F - 64.0 °F 73% 30.06 in 10.0 mi ENE 6.9 mph - N/A   Clear
10:53 PM 72.0 °F - 63.0 °F 73% 30.07 in 10.0 mi NE 6.9 mph - N/A   Clear
11:33 PM 70.0 °F - 63.0 °F 78% 30.10 in 10.0 mi ENE 5.8 mph - N/A   Mostly Cloudy
11:53 PM 70.0 °F - 63.0 °F 78% 30.07 in 10.0 mi East 5.8 mph - N/A   Mostly Cloudy